Погода в Калиновке

Украина / Винницкая область     49°26′49″N   28°31′23″E
темп.,
°C
ветер,
м/с
пор.,
м/с
влажн.,
%
обл.,
%
осадки,
мм/ч
давл.,
гПа
погр.,
м
23 апреля, пт
пт2300:00+7зсз378911 0.0 1016161
03:00+6ссз499198 0.0 1016453
06:00+5ссз488499 0.9 1017538
09:00+5сз3579100 1.3 1019667
12:00+8сз5553100 0.0 10191354
15:00+9сз4649100 0.0 10181694
18:00+10зсз564554 0.0 10171859
21:00+5сз41072100 0.3 1019398
24 апреля, сб
сб2400:00+3з49811 0.1 1020229
03:00+2з410825 0.1 1020260
06:00+1з411895 0.0 1020345
09:00+4зсз71152100 0.0 10221491
12:00+7зсз71140100 0.0 10222851
15:00+7зсз7104998 0.3 10221827
18:00+8сз695110 0.3 10211802
21:00+4зсз22668 0.3 102214
25 апреля, вс
вс2500:00+3ююз226839 0.0 102225
03:00+3ююз367075 0.0 1021124
06:00+2юз41188100 0.0 1019298
09:00+4зюз5996100 1.6 1019600
12:00+5з4693100 1.8 1019936
15:00+6сз6863100 2.1 10191475
18:00+8сз684747 0.0 10182079
21:00+3сз35645 0.0 102077
26 апреля, пн
пн2600:00+1сз22745 0.0 102037
03:000з337712 0.0 102041
06:00−1з35765 0.0 1019100
09:00+5з57575 0.0 1018856
12:00+7з7848100 0.5 10171987
15:00+8зсз7942100 0.7 10172344
18:00+6зсз685397 0.2 10171603
21:00+2ссз2263100 0.3 101727
27 апреля, вт
вт2700:00+2юз2263100 0.0 101721
03:00+2зюз226196 0.0 101624
06:00+1зсз2469100 0.0 1016107
09:00+5з46685 0.0 1017757
12:00+8зсз5744100 0.1 10162121
15:00+10зсз564299 0.1 10152062
18:00+10сз344561 0.0 10151681
21:00+6вюв11605 0.0 101610